Location: Bernadets
(43.3537°N, 0.3167°E)
Time: 01:09:04
(UTC+00:00)

COSMO-SKYMED 1 - Pass Details

Date: 24 October 2021
Orbit: 621 x 623 km, 97.9° (Epoch: 06 December)

Event Time Altitude Azimuth Distance (km) Brightness Sun altitude
Rises 17:51:26 0° 16° (NNE) 2,914 5.8 -9.8°
Reaches altitude 10° 17:53:40 10° 20° (NNE) 2,002 4.9 -10.2°
Maximum altitude 17:57:58 59° 100° (E) 720 2.6 -10.9°
Drops below altitude 10° 18:02:14 10° 181° (S) 1,985 5.2 -11.7°
Sets 18:04:26 0° 185° (S) 2,886 6.1 -12.1°
